Showing default

KSM1-C, 46906

Orbit data source: Space-Track

KSM1-C, 46906 is a payload satellite owned by Kleos Space (LU) in LEO that was launched on Sat, 07 Nov 2020 UTC via a PSLV-DL launch vehicle from the Sirharikota (SRI). Payload-class satellites include a variety of spacecraft equipped with specific instruments for various scientific and technological missions. These include communications satellites like Starlink; space stations such as the ISS; scientific satellites like the Hubble; Earth observation satellites from companies like Planet Labs, Umbra, and HawkEye 360; GPS; miniature CubeSats for education and research; and military/defense satellites.

Loading next visibility...
Identifier
46906, 2020-081B
Orbit
LEO
Country
Flag of UnknownUnknown / LUXE
Related business
Manufacturer
GOMSpace
Mission
Operational Commercial Sigint
Bus & Motor
CUBESAT 6U, Unknown motor
Mass
~10 kg wet, ~10 kg dry
Launch date (UTC)
2020-11-07 (5 years ago)
Launch vehicle
PSLV-DL
Launch site
Sirharikota (SRI)
Object type
Payload
Rocket body
Debris
Shape & HBR
Box, 1.0 m
Radar Cross Section
0.080 m², Small (<0.1 m²)

Expand to show TLE details & history
Last TLE update: 10 hours ago

TLE from 10 hours ago
0 KSM1-C
1 46906U 20081B   25288.88956030  .00011550  00000-0  50905-3 0  9994
2 46906  36.8925 121.3808 0005119 330.1439  29.9016 15.21225916271878
Epoch: 2025-10-15T21:20Z
TLE epoch observation values (Epoch: 2025-10-15T21:20:58.009Z)
Latitude
-0.00003°
Longitude
136.4819°
Altitude
498.198 km
Speed
7.619 km/s
True Right ascension
08h 05m 31s
True Declination
0° 00' 00"
Sunlit
Object was in daylight at epoch
Visualization orbit readout
Latitude
Unknown
Longitude
Unknown
Altitude
Unknown
Speed
Unknown
Apparent Right ascension
Unknown
Apparent Declination
Unknown
Sunlit
N/A
Visualization observer readout
Local Sidereal Time
01:59:55
Azimuth
Unknown
Elevation
Unknown
Doppler factor
Unknown
Orbital elements
Apogee altitude
508.611 km
Perigee altitude
501.564 km
Semi-major axis
6,883.225 km
Eccentricity
0.00051
Inclination
36.8925°
RAAN
121.3808°
Arg. of periapsis
330.1439°
True anomaly
29.93086°
Mean anomaly
29.9016°
Eccentric anomaly
29.91623°
Mean motion
3.80063 °/min
Orbital period
94.72 mins
BSTAR
0.00050905
Loading maneuver chart data...
Computing Atmospheric mass density...
Loading historical data...
Loading historical data...
Loading historical data...
Loading historical data...
Loading historical data...
Loading historical data...
Loading historical data...

Documentation

Showing up to 5 results
|